Location: Castle Hill Houses
(40.8186°N, 73.8497°W)
Time: 11:28:42
(UTC+00:00)

SL-16 R/B - Pass Details

Date: 26 January 2020
Orbit: 842 x 846 km, 71.0° (Epoch: 20 February)

Event Time Altitude Azimuth Distance (km) Brightness Sun altitude
Exits shadow 09:52:35 11° 193° (SSW) 2,356 4.4 -26.2°
Maximum altitude 09:57:56 72° 110° (ESE) 890 2.4 -25.2°
Drops below altitude 10° 10:03:34 10° 28° (NNE) 2,473 4.9 -24.1°
Sets 10:06:02 0° 26° (NNE) 3,412 5.6 -23.7°
